RH
62 62 61 61 61 59 56 55 54 51 48 47 46 47 47 49 49 50 50 51 53 53 53 52 52 51 50 50 50 50 49 48 48 48 47 46 48 48 47 46 45 44 44 43 43 43 42 42 43 40 38 37 35 33 33 32 29 25 24 27 28 26 28 33 35 33 31 33 37 36 34 32 30 28 25 23 26 40 44 31 25 28 27 25 24 26 28 30
65 64 63 63 63 62 59 56 54 51 49 48 47 48 49 50 52 53 53 54 55 56 57 57 57 57 56 55 55 54 53 52 51 50 49 48 49 50 49 47 46 45 45 45 45 46 46 46 47 45 43 42 39 38 39 39 34 29 26 29 31 28 28 34 37 35 34 35 37 36 35 35 37 34 31 26 23 32 37 29 27 32 34 30 26 27 28 30
69 68 67 65 65 64 61 58 56 54 52 51 50 51 52 53 54 56 58 58 59 60 62 63 64 64 63 61 60 59 57 56 55 53 53 53 52 52 52 51 49 47 46 47 47 49 50 48 49 49 47 47 45 43 45 44 40 34 30 30 33 31 28 33 36 35 36 39 39 37 34 35 42 42 39 35 29 30 34 30 29 33 36 37 34 33 32 33
73 72 69 68 67 66 64 61 60 59 58 56 55 56 57 57 57 58 61 62 64 65 67 68 69 68 68 66 65 64 63 63 61 59 58 57 57 58 58 57 56 55 54 55 54 55 55 52 51 52 49 49 49 48 48 47 43 39 36 35 37 35 29 31 34 34 36 41 43 38 33 32 39 42 40 40 38 36 37 34 31 31 34 36 38 40 39 38
76 73 71 70 69 67 66 65 64 65 66 64 62 61 61 61 60 61 62 65 68 70 72 73 73 73 73 72 72 72 72 73 72 70 67 65 65 68 69 69 68 67 67 69 69 69 68 63 60 60 53 51 54 53 49 49 47 43 40 41 42 41 36 34 36 36 39 44 47 43 37 34 38 41 38 40 42 42 42 40 36 33 32 35 38 41 43 45
77 74 72 70 69 67 66 67 68 69 71 71 69 66 65 65 65 66 66 67 70 73 76 78 80 81 81 80 80 78 78 82 84 82 79 75 74 78 81 81 80 79 79 79 79 79 78 75 74 71 62 61 66 63 58 57 56 52 46 46 46 45 43 41 41 43 45 45 43 44 41 39 44 46 40 41 45 45 44 44 42 38 36 37 39 41 44 47
78 75 73 71 69 66 64 64 66 69 72 73 72 69 68 68 70 72 72 71 72 75 77 81 85 88 89 89 88 84 82 88 94 92 88 85 84 87 89 89 87 85 85 82 81 79 77 77 80 79 72 72 75 72 71 70 67 63 58 55 53 52 51 51 52 52 53 50 45 45 43 41 47 49 44 44 48 47 45 46 45 44 42 42 44 46 48 50
79 76 74 72 69 65 63 62 64 67 71 72 71 71 70 71 74 76 77 77 76 77 78 82 86 89 92 92 92 88 85 91 98 97 93 90 88 89 90 90 88 87 87 85 83 81 78 79 84 85 84 83 80 78 80 80 76 73 68 64 61 61 60 58 61 61 62 60 57 59 56 51 53 54 50 50 54 53 49 50 51 50 50 49 49 50 53 55
78 77 75 73 71 68 65 64 65 67 70 73 73 72 72 73 77 80 83 83 82 82 81 84 86 89 93 95 94 86 84 91 95 98 99 93 89 89 89 88 87 87 90 92 92 90 86 87 90 90 89 89 85 83 88 90 86 82 79 76 70 68 66 63 63 61 60 61 62 68 68 62 62 62 58 55 60 60 53 53 55 55 58 62 61 58 59 59
78 78 77 75 73 71 69 67 66 68 70 72 73 73 74 76 80 85 89 91 91 90 90 91 92 95 99 100 95 83 83 88 86 90 97 96 94 92 92 93 95 95 96 98 98 98 95 95 96 93 92 93 88 85 89 90 86 82 80 78 73 70 69 67 65 60 57 55 54 63 69 62 58 59 57 54 57 59 55 51 52 56 62 70 71 68 63 58
79 79 79 78 75 73 70 68 67 67 69 72 73 74 76 79 84 89 94 97 98 100 101 102 102 103 103 102 98 89 86 87 83 82 86 92 98 98 99 102 104 105 103 102 100 98 96 95 94 92 93 94 90 88 89 86 83 83 81 81 77 73 73 72 70 68 64 57 50 58 71 65 50 47 48 47 48 52 50 47 47 51 59 65 68 69 64 54
79 79 79 77 74 73 70 69 68 68 70 72 74 76 78 81 84 88 92 97 101 105 108 110 110 108 107 107 104 100 95 92 89 86 85 91 99 102 106 107 106 107 104 102 100 98 98 97 94 93 93 94 93 93 93 91 89 90 91 93 92 88 88 85 83 82 77 70 64 68 83 82 58 44 46 46 44 47 45 41 42 45 51 57 60 63 60 52
80 79 78 77 74 72 70 70 69 70 73 75 77 78 79 79 81 83 88 94 98 103 107 110 112 110 111 111 108 108 107 103 98 96 97 98 101 104 106 106 106 107 104 100 99 100 99 98 97 96 96 98 99 98 95 94 93 94 95 97 98 98 98 93 91 89 82 75 72 74 91 100 77 52 52 53 48 49 49 44 44 45 47 49 52 56 56 55
81 80 80 79 78 76 73 73 73 75 77 79 81 81 81 80 79 81 85 90 93 96 98 101 104 105 110 110 106 108 110 106 103 103 105 105 105 105 104 104 105 104 100 97 95 95 93 92 93 93 93 95 98 96 92 90 91 91 90 90 93 97 99 98 97 95 89 84 80 80 92 107 96 69 60 61 57 54 54 53 52 51 50 48 49 52 56 59
81 82 84 84 83 81 79 77 76 78 80 82 83 82 82 80 78 80 84 90 92 93 91 89 90 92 101 104 101 102 101 97 96 95 97 100 100 100 98 96 94 93 91 90 89 87 85 83 83 85 86 88 89 88 86 84 85 85 83 85 87 90 93 95 97 95 93 92 91 91 95 103 104 91 76 71 70 68 66 64 61 57 54 53 53 54 56 57
83 85 86 87 87 86 85 83 81 80 81 82 83 83 82 80 79 79 81 86 90 93 91 87 81 77 83 87 84 84 82 79 80 80 81 84 87 88 88 86 84 84 83 83 83 83 81 79 79 80 81 82 80 78 77 78 79 78 77 79 81 82 84 87 89 89 89 90 91 93 95 96 98 100 94 83 80 86 86 84 79 68 59 57 56 56 57 58
88 89 91 91 92 91 91 90 88 86 83 81 83 85 85 83 82 81 80 80 81 85 87 89 85 79 79 77 74 73 74 77 79 81 83 83 83 83 84 85 86 85 85 83 82 80 79 79 81 82 82 81 76 71 70 73 73 71 70 70 69 70 72 74 75 76 76 77 78 79 82 83 84 89 91 88 87 94 100 101 100 91 80 73 66 62 59 58
96 97 98 99 98 98 98 98 98 96 89 84 84 85 86 86 86 86 84 81 79 79 80 83 86 87 90 89 87 87 88 93 96 97 97 94 90 86 85 85 86 86 87 86 83 82 81 81 82 82 83 81 75 72 72 73 71 69 68 66 65 64 63 64 64 63 62 62 63 63 63 65 65 66 68 72 76 81 87 91 96 101 100 96 90 83 77 72
105 105 105 106 106 105 104 102 102 102 96 90 88 87 88 88 89 88 86 85 85 84 83 84 85 86 91 94 94 95 98 99 100 99 97 95 90 84 82 81 81 81 80 80 79 78 78 78 79 79 80 77 75 74 74 73 71 69 68 65 64 64 62 62 60 58 57 56 55 54 53 52 52 52 51 54 56 58 63 66 71 81 89 94 98 99 97 94
104 107 108 107 107 108 108 105 103 104 102 98 94 91 90 91 92 92 91 93 94 91 87 86 85 83 85 86 87 90 94 95 95 95 93 90 87 82 81 81 81 80 78 76 74 74 74 72 73 74 73 73 73 73 71 69 69 69 68 66 65 64 63 61 58 55 53 51 50 48 47 46 45 45 44 45 45 45 47 50 52 57 64 71 78 86 92 96
90 94 99 102 104 104 104 105 105 105 105 103 98 93 92 93 94 96 99 102 102 98 92 89 87 89 89 87 91 96 100 103 104 103 102 99 96 94 93 92 91 89 85 80 79 82 80 79 84 83 78 78 77 73 68 64 63 64 65 66 66 63 61 57 53 50 47 46 47 46 44 43 44 44 43 42 41 41 40 41 43 45 48 52 56 61 67 74
82 81 82 88 98 104 103 102 103 103 104 104 103 98 97 98 98 98 99 101 102 98 96 95 91 95 100 98 100 101 99 101 98 93 89 86 83 81 80 80 80 80 78 77 79 78 78 89 96 91 87 86 81 73 66 59 57 57 58 60 60 59 57 55 53 51 49 49 48 46 45 46 50 51 50 49 47 45 43 42 43 43 44 45 47 49 51 54
92 91 86 81 83 91 99 103 102 102 103 103 103 101 100 99 96 95 94 96 99 96 92 94 97 99 95 85 78 73 69 70 67 63 60 58 56 55 54 54 55 56 58 62 64 64 75 96 99 88 85 83 77 70 60 54 52 52 53 53 53 54 55 57 59 58 55 53 49 46 45 49 55 56 56 56 54 52 52 52 52 50 49 48 47 47 47 49
101 102 102 96 86 77 77 82 88 94 100 103 103 102 101 99 98 98 96 93 95 101 95 87 91 89 73 59 55 54 53 54 54 54 55 54 53 52 50 47 45 47 48 48 50 52 66 87 91 85 81 77 71 63 54 50 50 50 51 50 53 58 60 61 62 61 57 53 49 47 46 49 54 54 55 55 53 54 55 57 59 58 56 55 54 53 51 51
102 103 105 105 101 90 74 64 68 78 85 91 95 97 98 98 96 88 79 69 70 89 91 71 64 61 53 51 53 54 55 56 56 56 56 56 55 55 55 53 52 53 54 51 49 49 56 66 72 74 74 71 65 57 53 52 50 49 49 52 57 60 59 57 55 54 51 48 48 48 46 48 51 52 51 50 50 51 53 55 57 57 58 59 58 56 55 55
101 102 103 103 103 102 92 73 62 65 71 76 80 82 83 82 75 64 56 50 48 61 69 58 52 52 53 56 58 59 61 62 63 63 63 63 61 58 57 57 57 59 62 59 55 56 57 55 55 59 62 62 60 56 55 52 48 47 49 52 55 54 52 52 53 52 49 49 51 53 54 52 51 53 51 46 46 47 49 51 52 53 54 56 56 56 55 54
102 102 101 100 99 101 104 95 76 65 63 67 69 70 70 68 62 56 52 50 47 50 53 54 57 60 62 64 63 65 67 66 68 69 69 68 66 63 60 59 59 60 63 62 62 64 62 58 56 54 54 53 53 51 50 48 46 47 50 51 51 51 53 55 57 55 54 56 55 58 66 58 53 61 58 49 46 46 46 47 48 50 50 50 51 51 51 52
102 101 99 99 101 100 104 105 97 85 75 68 66 66 66 65 63 59 55 52 51 53 55 58 62 66 69 70 71 74 75 74 75 74 73 72 71 72 71 69 68 66 65 64 67 69 68 68 68 66 64 60 55 52 51 50 50 51 52 52 52 53 55 57 57 57 58 58 56 65 72 58 50 58 58 51 50 48 47 47 47 47 48 48 48 48 48 48
101 101 101 100 101 101 101 102 103 103 97 88 77 68 66 68 65 61 58 56 57 59 62 64 66 69 73 74 76 81 82 83 84 84 83 81 81 83 83 81 79 75 71 69 72 72 70 72 74 73 73 70 67 67 66 65 64 64 64 63 64 64 64 65 64 66 65 60 63 73 74 58 49 53 54 50 49 48 47 46 45 44 45 46 47 49 50 50
94 97 101 101 100 101 101 101 101 102 105 106 94 79 72 69 64 60 57 58 62 65 66 68 70 74 76 78 81 86 90 92 95 96 95 95 94 94 94 93 91 89 85 82 81 78 74 76 79 79 78 75 73 72 71 70 69 70 72 73 75 74 74 74 72 72 69 64 67 71 66 57 50 52 56 55 52 51 49 45 43 41 41 42 43 44 46 48
94 96 99 99 99 100 101 102 101 99 101 106 102 90 81 73 64 60 58 60 64 66 68 70 73 76 77 80 82 85 90 92 94 96 97 98 100 100 100 98 97 98 96 94 92 86 81 81 82 83 83 81 78 76 73 70 68 69 71 71 72 71 71 71 69 70 66 62 64 63 59 56 52 53 58 57 55 53 49 46 44 42 41 40 41 42 43 44
100 102 102 101 99 101 103 101 98 97 98 102 102 97 91 82 69 64 65 66 67 67 69 68 68 71 74 76 78 77 78 78 79 81 83 87 90 93 95 96 98 100 100 100 97 90 85 83 80 79 81 83 83 83 78 72 69 69 69 67 66 65 65 66 68 71 66 61 61 61 58 56 54 56 57 56 55 51 48 49 46 44 42 41 42 42 43 44
100 102 103 103 101 101 104 98 89 87 92 101 106 103 101 91 76 74 77 76 75 72 71 68 66 69 69 71 74 73 73 72 71 71 71 74 79 83 87 91 93 95 96 97 94 89 85 81 79 78 79 81 82 82 78 74 73 71 70 69 67 67 71 71 70 68 62 60 62 61 57 54 53 54 54 54 54 52 52 54 52 50 50 49 50 51 53 55
101 100 100 101 101 102 104 97 87 88 93 100 106 104 106 101 90 92 96 91 86 79 76 75 73 73 73 73 73 71 70 70 69 67 67 68 72 77 81 84 85 86 87 87 85 83 81 78 79 80 79 79 79 79 77 75 74 73 73 73 73 78 81 75 68 65 65 66 65 61 56 53 53 53 53 54 54 56 62 65 64 65 67 70 73 77 77 72
101 100 100 101 101 102 103 96 92 99 101 103 109 106 104 104 101 107 110 105 98 90 88 86 79 75 73 74 74 73 74 74 70 66 64 65 68 72 76 77 78 78 77 77 76 75 75 76 79 81 81 80 79 76 75 76 75 74 76 81 84 86 83 77 74 75 78 73 66 63 60 56 56 57 58 62 65 69 76 80 82 84 90 95 95 94 88 80
103 101 101 101 101 101 101 99 97 103 104 105 110 107 103 102 102 106 108 107 106 105 105 98 85 77 71 69 71 72 74 73 70 66 63 62 63 65 70 73 73 73 73 74 76 75 76 78 80 82 82 79 76 74 74 74 76 79 84 90 89 86 85 89 90 85 82 76 70 69 67 64 65 68 72 81 86 87 91 97 102 103 101 98 92 86 81 76
105 104 103 100 101 100 100 102 99 99 102 103 101 98 98 100 103 107 106 104 105 106 108 102 90 84 78 71 69 69 69 69 67 66 65 63 61 61 65 67 68 71 74 77 80 79 80 82 81 80 79 75 73 74 72 73 81 90 94 93 93 92 93 95 93 85 82 78 73 73 75 76 78 81 88 97 100 100 102 105 106 101 93 86 82 79 76 74
103 107 106 101 101 101 101 103 100 94 93 91 86 85 89 94 100 106 105 104 106 103 102 102 98 92 84 77 75 74 72 70 67 66 65 63 60 57 59 62 66 70 74 78 81 81 83 83 78 73 73 74 71 71 75 83 91 95 95 95 99 103 100 95 90 86 83 79 77 81 86 87 88 92 96 100 100 99 100 98 95 90 86 86 85 83 83 80
100 107 107 104 103 102 101 102 102 99 92 85 83 81 84 92 98 102 103 106 111 106 100 104 107 100 90 83 82 81 81 79 74 70 65 61 57 56 58 61 65 70 74 77 79 81 81 78 72 67 69 70 68 70 79 85 85 86 92 97 98 102 104 100 93 86 83 83 84 85 84 82 86 90 91 92 94 94 93 91 91 92 92 94 95 93 92 90
103 108 102 95 94 95 100 104 106 105 94 86 86 82 82 92 100 104 106 105 107 104 98 101 106 103 99 97 96 94 91 83 74 67 62 59 58 57 58 61 66 70 74 77 78 79 79 75 73 71 69 69 71 74 78 83 85 89 98 104 103 104 104 97 89 83 82 83 83 81 78 74 77 81 83 87 89 87 88 91 94 98 99 99 101 96 89 93
101 109 101 91 84 82 90 100 105 106 100 91 88 80 76 82 90 100 106 104 105 105 101 99 98 96 97 95 89 83 75 67 62 60 57 58 59 60 61 64 68 70 72 74 73 73 75 77 79 76 72 74 78 78 77 86 98 101 103 107 106 103 97 90 83 78 77 80 80 80 78 72 75 81 83 85 86 85 90 96 97 97 97 91 90 96 92 94
79 89 92 93 90 82 80 84 87 96 104 101 92 84 79 77 77 80 81 82 85 86 84 81 76 71 69 65 60 56 53 52 54 55 55 56 59 61 63 64 66 67 67 67 66 69 76 82 82 79 78 78 79 84 87 92 102 107 104 104 101 96 92 88 81 75 77 80 80 83 80 73 77 84 86 86 87 90 94 98 95 87 89 92 87 98 108 98
50 57 64 75 83 83 79 72 66 70 82 89 89 89 88 86 82 75 67 64 64 64 63 59 54 51 49 49 49 48 48 50 53 55 57 58 60 61 60 60 63 64 64 67 72 78 84 87 83 78 81 83 82 91 101 101 103 107 104 100 98 96 90 83 78 80 84 82 85 93 89 82 86 90 92 91 88 92 90 87 92 86 87 107 104 95 105 104
43 41 42 47 55 59 59 54 49 47 51 58 65 70 73 73 70 64 55 50 48 46 45 42 41 42 43 45 47 48 50 53 56 58 58 59 59 59 59 60 62 65 71 79 87 91 89 87 86 85 88 94 95 99 107 107 105 105 104 100 97 91 85 79 81 87 87 85 94 102 95 92 99 97 90 85 80 87 90 82 92 101 94 101 108 97 98 108
52 47 42 43 46 44 40 36 35 36 37 39 41 43 46 46 44 41 38 37 37 37 38 40 44 46 47 49 50 51 54 56 59 59 58 57 57 58 61 66 71 77 84 89 92 95 94 91 93 97 99 103 104 102 104 107 106 102 100 97 89 81 78 81 87 89 89 94 100 99 97 99 99 86 76 79 82 87 96 93 91 99 99 96 102 103 102 110
62 57 50 49 52 49 44 42 41 40 40 41 42 42 43 43 42 41 41 41 43 45 48 50 53 53 52 51 52 54 56 58 59 56 54 56 59 64 70 77 84 89 93 95 95 97 101 99 100 104 105 104 104 100 95 95 97 94 89 84 78 78 84 88 88 87 94 107 105 92 91 92 83 75 77 90 100 97 95 100 97 91 95 104 108 104 101 106
74 69 64 62 62 59 55 53 52 53 52 51 51 52 51 50 50 50 50 51 53 55 56 57 57 56 56 56 57 58 57 56 55 54 56 62 69 77 83 88 94 96 97 100 99 99 103 102 102 107 105 98 96 95 90 85 85 81 76 75 78 85 92 91 89 95 104 108 99 83 80 82 79 84 95 101 105 105 96 91 99 105 101 102 111 110 99 98
85 83 81 79 76 73 70 70 71 72 70 66 62 59 57 57 57 58 59 60 61 62 64 65 62 61 62 61 60 59 57 57 58 60 67 76 81 87 91 92 93 95 96 97 95 97 102 99 96 100 100 93 89 90 89 83 77 72 71 77 84 89 96 96 95 104 109 94 80 80 84 88 90 95 107 109 97 97 106 99 96 113 117 101 101 109 99 91
93 94 94 92 89 87 88 90 92 90 85 81 76 72 69 68 67 68 69 70 72 72 73 72 67 66 69 68 67 66 65 66 70 74 82 89 91 91 90 89 90 90 90 94 94 91 95 99 94 91 93 94 93 91 86 78 72 74 75 76 85 94 100 108 105 96 94 86 80 93 97 90 95 100 104 112 105 93 106 118 103 103 116 107 94 100 100 86
98 99 99 99 100 98 98 101 101 101 100 99 96 90 87 87 85 84 84 82 77 73 71 69 69 73 77 77 75 73 75 80 85 90 92 91 90 90 91 91 92 90 89 96 100 94 94 100 98 94 94 94 95 91 83 77 76 76 74 76 95 109 101 102 105 89 88 100 97 96 94 80 89 110 105 103 114 108 100 112 112 98 102 108 98 92 85 64
101 102 101 102 103 101 104 106 102 103 106 107 103 99 101 104 100 98 97 90 80 77 77 79 83 87 86 83 81 82 88 95 99 99 94 89 90 93 94 91 90 94 96 98 103 102 100 101 97 100 101 92 89 86 81 84 81 71 74 85 105 121 105 90 99 98 98 110 99 81 85 88 94 113 114 100 106 115 105 103 110 103 96 100 92 71 51 32
102 102 102 105 105 101 104 106 103 102 104 105 103 101 103 105 102 100 101 99 93 92 95 96 97 98 95 92 92 95 99 101 100 99 97 96 98 97 97 96 95 98 101 103 107 105 103 106 103 100 96 84 81 86 87 89 77 65 85 103 104 114 113 97 100 106 99 97 94 85 91 105 106 104 110 109 104 109 109 99 95 91 80 69 54 34 21 14
Wind_Speed
33 33 33 32 32 32 31 31 31 31 31 31 30 29 28 28 27 26 26 25 25 24 24 23 22 22 22 22 22 22 21 21 20 20 20 20 19 20 20 20 20 19 19 19 19 19 19 19 19 20 19 20 20 19 19 21 22 22 21 21 21 19 18 20 20 20 19 19 19 20 22 24 24 22 20 15 10 8 11 16 20 19 17 12 6 6 8 8
33 33 32 32 32 32 32 32 32 32 32 31 30 30 29 28 28 27 27 26 25 25 24 24 23 23 22 22 22 22 22 21 21 20 20 20 20 20 20 20 20 19 19 19 19 19 19 19 19 20 20 20 20 19 19 20 22 22 21 21 22 20 19 20 22 21 22 21 21 22 23 24 26 25 24 23 18 13 12 14 18 20 19 17 13 11 11 10
34 33 33 32 32 31 32 32 32 32 32 31 31 30 29 29 29 28 28 27 26 25 25 24 24 24 23 23 23 23 22 22 21 21 20 20 20 20 20 20 20 20 19 19 19 19 19 19 19 20 20 20 20 19 19 21 22 22 22 21 22 22 20 21 22 22 23 24 24 24 24 24 26 26 26 27 26 21 18 15 16 19 19 18 19 19 18 16
34 34 33 32 32 32 32 32 32 32 32 32 31 31 30 30 30 30 29 28 27 27 26 26 25 25 24 24 24 23 23 22 21 21 21 20 20 20 20 20 20 20 19 19 19 19 19 20 19 20 20 20 20 20 21 22 22 23 23 22 23 24 23 22 23 22 23 25 26 26 25 25 26 27 27 29 30 28 24 20 17 18 19 19 19 21 22 22
35 34 34 33 33 33 32 32 32 32 33 32 32 32 32 32 31 31 30 29 29 28 27 27 26 26 25 25 24 24 23 21 21 22 22 21 20 21 21 21 21 20 20 19 19 19 20 20 20 21 21 20 21 22 22 22 23 23 23 23 23 25 25 24 23 23 24 25 27 29 28 27 28 30 28 28 32 33 30 26 21 19 21 23 21 20 22 24
36 35 34 34 33 33 33 33 33 33 33 33 33 33 33 33 32 32 31 30 30 29 29 28 27 27 26 26 25 25 23 22 22 22 22 22 21 22 22 22 22 21 21 21 20 20 21 21 21 22 22 20 22 23 23 23 24 24 24 24 24 24 25 25 24 24 25 27 28 30 30 28 29 32 30 29 33 35 33 31 27 23 22 25 27 25 24 26
36 36 35 34 34 34 33 33 33 34 34 34 34 34 34 34 33 33 32 31 31 31 30 29 29 28 28 28 27 27 25 23 23 24 23 24 23 23 24 24 24 24 23 23 22 22 22 22 22 23 22 22 23 23 23 24 25 26 25 25 25 25 26 26 26 25 27 29 29 31 30 27 29 32 32 31 34 36 35 33 31 28 25 25 28 30 31 31
37 36 36 35 34 34 34 33 34 34 34 34 34 34 34 34 34 34 33 33 32 32 32 31 31 30 30 30 30 30 27 26 26 26 26 26 26 26 26 26 26 26 25 24 24 24 24 23 24 24 24 24 24 23 23 25 25 26 27 26 26 26 27 27 27 27 28 30 30 32 32 29 30 33 33 33 37 38 36 34 33 33 29 27 28 32 35 36
37 37 36 35 35 34 33 33 33 34 34 34 34 34 34 34 34 34 34 34 33 33 33 33 33 33 33 32 33 32 29 29 29 29 29 29 29 29 28 28 28 27 27 26 26 26 26 25 26 26 26 27 27 26 26 26 27 27 27 28 28 28 29 28 28 29 30 30 30 32 34 32 32 34 34 34 38 40 39 36 35 34 33 32 32 33 35 37
38 37 36 35 35 34 33 33 33 34 34 34 34 34 34 34 34 34 35 35 35 34 34 34 34 34 34 34 34 33 31 31 31 30 31 31 31 31 30 29 29 28 28 28 28 29 28 27 27 28 28 28 28 28 28 29 29 29 29 30 30 31 32 31 32 33 33 33 32 33 36 36 35 35 35 35 38 40 40 39 37 36 35 36 37 37 37 37
38 38 37 36 35 34 34 34 33 34 33 34 34 34 34 34 34 35 35 35 35 35 35 35 35 35 34 34 35 34 32 32 31 31 30 31 31 31 31 30 30 29 29 29 29 30 29 29 29 29 29 30 30 29 29 30 30 31 30 31 32 32 34 34 34 35 36 36 35 36 39 40 40 39 37 37 38 40 41 40 39 38 38 38 39 40 40 39
40 39 38 37 36 35 34 34 33 33 33 34 34 34 34 34 34 35 35 35 35 35 35 35 35 35 35 35 35 35 33 32 32 30 30 30 31 31 31 31 31 31 30 30 30 30 30 30 30 30 30 31 31 30 29 30 30 30 30 30 31 32 33 35 35 35 37 38 37 37 39 43 46 44 41 39 39 41 42 41 40 41 42 42 42 42 43 42
41 40 39 38 37 36 34 34 33 33 33 34 34 34 34 34 34 34 34 35 35 35 35 35 35 35 36 37 36 35 34 33 32 30 30 30 31 31 32 32 32 32 32 31 30 30 30 29 29 29 30 30 30 30 29 30 30 30 29 30 30 31 33 35 35 35 37 37 38 38 38 43 49 49 45 43 41 42 44 43 42 43 44 45 45 46 46 45
43 42 40 39 38 36 35 34 33 33 34 34 34 34 34 33 33 33 33 34 34 34 34 34 35 35 36 37 35 34 33 32 31 30 30 31 31 31 31 31 31 31 31 30 30 30 29 29 29 29 30 30 30 31 31 31 31 31 31 31 31 31 33 35 36 36 36 36 37 37 37 41 49 52 50 47 44 44 45 45 46 46 47 47 48 49 49 48
45 43 42 41 39 38 36 35 34 34 35 35 35 34 34 33 32 32 32 32 32 32 33 33 33 34 34 35 34 33 32 30 29 29 30 30 30 30 30 30 30 30 30 30 30 30 31 30 30 31 31 32 33 33 33 33 34 34 33 33 34 34 35 37 39 39 38 37 37 37 37 40 46 51 53 51 48 46 46 46 48 49 50 50 50 51 52 52
47 45 44 43 41 40 38 37 36 36 36 36 36 35 34 34 33 32 32 32 31 32 32 32 32 32 32 33 33 32 31 30 29 29 30 30 30 30 30 30 31 31 32 32 32 32 32 32 32 33 34 36 36 35 35 35 37 38 36 36 37 37 38 39 42 42 41 40 39 40 40 42 45 49 54 55 52 50 49 48 48 50 51 52 52 53 54 54
48 47 46 45 44 42 41 40 39 39 38 37 37 36 36 35 34 34 33 33 32 32 32 32 33 32 32 33 32 32 31 31 31 31 31 32 32 33 33 33 34 34 35 35 35 35 35 35 36 37 39 40 40 39 38 39 41 41 40 41 41 42 42 43 45 46 44 43 43 43 44 46 48 50 54 56 55 54 55 53 52 52 52 53 54 55 56 56
48 48 47 46 45 43 43 42 41 41 40 39 38 37 37 36 36 36 35 35 34 34 33 33 34 33 33 34 34 34 33 34 34 35 35 36 36 36 37 37 38 38 39 39 39 39 39 39 41 42 44 45 44 43 42 43 45 45 45 45 45 46 46 47 49 49 48 47 47 47 48 49 50 52 55 57 57 57 59 58 56 56 56 55 55 56 56 57
48 48 48 47 46 45 45 44 43 43 42 41 40 39 39 38 38 38 37 36 36 35 35 35 35 34 34 35 35 35 36 36 37 38 39 39 40 40 40 40 41 42 42 42 42 42 43 43 44 47 49 49 47 47 47 48 49 49 49 49 49 49 49 51 51 51 50 49 48 49 49 49 50 53 55 56 57 59 61 61 59 59 59 59 59 59 59 59
47 47 47 47 46 46 46 45 45 45 44 43 42 41 41 40 39 39 38 38 37 37 36 36 36 36 36 37 36 37 38 39 40 42 42 43 43 43 43 43 44 45 46 46 45 46 47 47 48 51 52 51 50 50 51 51 52 52 53 52 52 51 51 51 51 50 49 47 46 48 47 48 50 52 54 56 58 60 60 61 62 62 62 62 62 63 63 63
46 46 46 46 46 46 47 46 46 46 45 45 44 43 42 42 41 40 40 40 40 39 38 39 38 38 39 38 37 39 39 41 43 45 45 45 45 45 45 46 46 48 49 48 47 48 49 48 50 54 53 52 52 52 52 52 53 53 53 52 51 51 50 50 49 48 48 46 45 46 46 46 49 52 54 56 58 60 60 61 62 63 64 64 64 65 66 66
46 45 45 45 46 47 48 48 47 47 46 46 45 44 43 43 42 42 42 41 42 41 40 40 39 39 41 39 39 41 41 43 45 45 46 45 45 45 45 45 47 49 49 49 50 50 49 49 53 54 53 52 52 52 53 52 52 52 51 50 49 49 48 47 48 48 47 46 45 45 44 44 48 51 53 55 57 59 59 60 62 64 65 65 65 66 67 68
48 46 45 45 46 48 50 50 49 48 48 47 47 46 45 45 44 44 43 42 43 43 42 41 40 39 40 40 40 41 41 42 43 43 44 43 42 42 41 41 43 44 46 47 49 48 47 49 53 53 52 53 52 53 53 52 52 51 50 49 47 48 47 46 47 47 47 47 47 47 45 44 48 50 51 53 56 57 57 58 60 63 64 65 66 67 67 68
50 49 47 46 46 47 49 49 49 49 49 48 48 47 47 46 46 45 44 43 43 45 44 41 39 38 39 39 39 40 40 42 43 43 44 43 42 41 40 40 40 40 42 43 44 43 44 49 52 51 52 52 51 52 53 52 51 50 50 49 48 48 48 48 48 49 48 49 49 49 47 46 51 54 53 54 56 56 56 57 59 60 62 64 65 66 67 68
53 52 50 49 47 47 48 47 47 48 48 48 47 47 47 46 46 45 44 41 38 42 45 39 37 37 38 39 39 40 41 42 43 43 43 43 42 41 41 41 40 40 41 41 40 39 42 48 50 50 52 51 51 53 55 53 52 54 54 53 51 52 53 52 52 51 51 50 51 51 49 48 52 56 57 57 56 57 58 58 59 60 61 63 64 66 67 68
55 54 53 52 50 49 49 47 47 47 47 47 46 46 46 45 45 43 43 39 34 37 42 38 37 37 38 41 41 41 42 42 43 43 43 44 43 42 42 42 42 41 42 41 40 39 42 47 48 50 53 54 54 57 59 58 57 59 60 59 58 58 59 58 57 56 54 53 53 55 56 53 51 56 60 59 57 59 61 62 61 61 62 63 64 65 67 68
57 57 56 54 53 52 51 50 49 48 47 48 47 47 46 45 45 44 44 39 33 35 39 39 40 41 42 44 44 43 44 43 44 44 44 45 44 44 44 43 44 44 44 43 42 43 44 46 47 49 52 54 57 59 61 62 61 62 63 64 64 64 64 63 63 62 60 59 57 59 65 61 52 56 63 63 61 62 65 66 66 65 65 65 66 67 68 69
60 59 58 57 56 55 54 53 52 51 50 49 49 48 47 47 48 47 46 41 36 36 40 42 44 45 46 47 46 46 46 46 46 46 46 47 46 47 47 47 48 48 47 46 46 48 48 48 50 51 52 53 54 56 58 60 61 62 64 66 66 67 66 66 67 66 65 64 61 65 73 68 56 56 64 66 66 66 68 69 70 70 69 69 69 69 70 71
62 62 61 61 59 58 58 57 56 55 54 53 52 50 49 50 51 50 48 44 39 40 44 46 48 48 49 50 50 50 50 50 50 50 50 50 50 51 52 52 53 53 52 51 51 53 52 52 55 56 57 57 56 57 58 59 60 62 65 66 67 68 68 69 68 69 70 66 63 70 77 74 62 59 65 69 69 69 71 73 73 73 73 73 73 72 72 73
64 63 63 63 62 61 62 61 60 59 59 57 55 53 53 54 53 52 48 44 44 47 48 50 52 52 52 53 53 54 54 54 54 54 54 55 55 56 56 56 57 57 57 56 57 58 57 57 58 60 61 62 63 63 63 64 64 65 67 68 69 70 70 71 71 72 73 68 67 73 78 76 68 63 67 72 72 73 75 76 76 76 76 77 77 76 76 76
66 66 67 66 65 65 65 65 65 64 63 61 59 58 58 58 56 53 48 47 52 53 52 54 55 56 55 55 56 56 56 56 56 57 57 58 58 59 59 60 61 61 61 61 62 62 61 61 62 63 64 66 68 69 69 69 70 70 71 71 73 74 74 74 74 75 76 71 71 76 77 77 72 67 71 74 75 77 78 78 79 79 80 80 80 80 80 80
68 68 69 69 69 69 69 69 69 67 65 64 63 62 61 61 58 53 51 54 59 58 57 58 58 58 58 58 58 58 58 58 58 58 59 59 60 61 62 63 63 64 64 64 65 65 65 65 65 66 67 69 71 72 74 75 75 75 76 77 78 78 79 79 78 80 79 75 75 78 78 77 74 72 75 76 77 79 80 81 82 82 82 83 83 84 84 84
71 70 70 70 71 71 73 74 72 69 68 68 67 66 65 63 58 55 57 62 64 63 61 61 61 61 62 61 61 61 61 61 60 60 61 61 62 62 63 64 65 66 66 67 68 68 68 69 70 70 71 73 75 76 78 80 80 80 81 82 83 84 85 85 83 84 82 80 80 81 81 80 76 75 77 78 80 81 82 84 85 85 86 86 87 88 89 90
73 73 74 73 73 73 75 75 73 72 72 72 71 70 68 64 59 59 64 68 69 67 65 64 64 65 64 64 65 65 65 65 64 64 63 63 64 65 66 66 67 68 68 69 70 71 70 71 73 75 76 77 79 80 82 83 84 85 85 87 87 89 92 91 88 88 87 86 85 85 85 84 80 80 81 81 83 84 86 88 89 90 91 92 93 94 95 96
76 75 76 77 76 77 77 76 75 76 77 76 76 74 69 65 63 66 69 71 72 71 69 69 68 66 66 67 67 68 69 69 69 68 67 67 67 68 69 69 69 70 70 71 72 73 72 73 75 78 79 81 82 84 85 87 87 88 89 90 92 93 96 97 95 95 95 94 90 88 89 88 86 85 85 86 88 89 91 93 94 95 96 97 98 98 99 100
77 77 78 78 78 79 81 80 79 80 81 80 80 76 71 69 69 71 72 73 74 73 73 73 70 69 68 68 70 71 73 73 73 72 72 72 72 72 73 74 74 74 74 75 76 76 75 75 77 79 81 83 85 87 89 89 90 92 92 94 96 97 99 101 102 100 100 99 96 93 93 93 92 91 90 92 94 95 96 98 98 99 100 100 100 100 101 101
76 78 80 78 78 80 81 82 82 82 83 84 83 79 75 73 73 74 74 75 76 77 77 75 73 72 72 72 73 74 75 76 76 76 76 76 76 76 78 79 79 80 80 81 81 80 79 78 79 81 84 86 87 89 91 92 93 95 96 98 100 102 103 105 106 104 103 104 102 99 99 98 97 96 95 97 98 98 100 101 101 102 102 102 102 102 102 103
76 78 79 78 79 80 81 82 83 83 85 86 83 79 77 77 77 77 77 78 79 79 78 77 76 76 76 76 77 78 79 79 80 80 80 80 80 79 81 83 84 85 86 86 86 85 84 84 83 84 87 89 90 91 93 95 97 98 100 102 105 106 107 108 109 107 107 108 108 106 104 101 100 99 100 101 101 101 102 103 103 103 103 103 104 104 104 105
77 77 77 77 78 79 80 81 82 84 87 86 83 79 78 78 80 81 81 81 82 81 80 79 79 79 79 80 81 83 84 84 84 84 84 84 84 84 85 86 87 88 89 90 90 90 90 90 88 88 90 93 93 94 96 99 101 103 105 107 109 110 112 112 112 110 110 112 112 111 108 103 100 100 102 104 104 103 103 104 104 104 104 105 106 106 107 107
78 78 76 76 77 77 78 80 82 85 87 85 83 82 80 79 81 82 83 83 84 83 82 81 81 82 83 85 86 88 89 90 90 89 88 87 88 89 90 90 90 90 91 92 93 94 94 95 94 92 93 95 96 98 100 102 105 107 109 111 112 113 114 114 113 111 112 115 115 115 112 107 103 103 104 106 105 105 105 104 105 105 106 107 108 108 109 109
79 80 78 78 79 79 80 83 84 86 87 85 84 83 81 80 81 83 83 83 83 83 82 83 85 86 88 90 92 93 94 94 93 92 91 90 92 94 94 93 92 93 94 95 96 97 98 99 98 97 96 97 100 103 104 106 108 110 112 114 115 116 116 116 115 113 114 117 118 119 118 113 107 106 108 108 107 107 107 107 106 107 108 109 109 110 110 111
84 84 82 81 82 83 85 87 88 89 89 87 85 84 83 82 83 83 84 84 84 84 85 86 87 89 91 94 96 98 98 97 95 95 94 94 96 98 98 96 95 96 97 98 99 99 101 102 102 101 101 102 104 107 109 110 112 114 116 118 119 119 119 119 119 118 119 120 121 123 123 117 112 111 111 110 110 110 110 110 110 110 111 111 111 112 112 113
88 88 88 87 87 88 89 90 91 92 91 89 88 88 87 86 85 86 87 88 90 91 92 92 92 93 94 96 98 99 99 98 97 97 98 99 100 101 101 100 99 99 100 101 101 103 104 105 106 106 106 107 109 111 113 115 116 118 120 121 121 121 121 121 122 122 123 124 124 126 126 120 116 115 114 113 113 114 113 113 113 113 114 114 114 114 115 116
91 91 91 91 92 93 94 93 92 92 93 92 92 93 93 92 92 91 92 94 96 97 98 97 97 98 98 99 99 99 100 100 100 101 102 103 103 103 104 103 103 103 103 103 104 106 107 109 110 111 111 111 112 114 117 119 121 122 124 124 123 122 122 123 124 125 127 127 127 128 126 122 119 118 116 116 117 116 116 116 116 116 116 116 117 117 118 119
95 95 95 96 97 99 99 97 95 94 94 95 95 95 96 96 96 95 96 98 99 99 100 100 101 102 102 102 102 102 103 104 104 104 105 105 105 105 106 106 105 105 105 106 107 109 111 112 113 114 116 116 116 118 121 123 125 126 125 125 123 122 123 125 126 129 131 131 130 129 126 123 122 121 119 119 119 118 119 119 119 118 118 119 120 120 121 122
98 99 99 99 101 103 103 102 101 100 99 98 99 100 100 100 99 99 100 101 102 103 104 105 105 106 105 105 106 106 106 107 107 107 106 106 107 107 107 107 107 108 108 110 112 113 115 115 116 118 120 121 122 123 125 126 127 126 124 123 123 124 126 127 130 133 134 134 133 130 127 127 125 122 120 121 121 121 122 122 121 121 121 122 123 124 125 126
101 102 102 103 104 105 105 105 105 105 104 105 105 105 105 104 104 103 104 105 107 109 111 111 110 109 108 109 110 110 109 109 109 108 107 108 109 109 109 109 110 111 112 114 116 117 119 119 120 122 124 126 127 129 129 128 127 126 124 124 125 126 128 131 134 135 135 135 135 131 129 130 127 123 122 123 124 125 125 124 124 124 124 125 126 127 128 129
104 104 105 106 107 107 106 106 107 108 109 110 111 110 109 108 108 108 109 110 111 113 114 114 113 112 112 113 114 113 112 111 111 111 111 111 112 112 112 113 114 116 117 119 120 122 123 124 125 127 129 130 131 133 133 131 129 128 127 127 128 129 132 135 136 135 135 138 137 132 131 130 127 124 125 126 128 128 127 127 127 127 128 129 130 130 131 131
106 107 108 109 109 108 108 109 110 111 112 113 114 114 113 112 113 113 114 115 116 116 116 116 115 114 115 116 116 115 114 114 114 114 114 115 116 117 118 119 120 121 122 123 125 126 127 129 130 132 133 134 135 136 135 134 132 131 131 130 131 133 135 136 135 136 139 140 137 133 132 130 127 127 128 129 130 129 129 129 130 131 131 132 132 132 132 131
110 110 111 111 111 111 111 112 114 114 115 116 117 116 115 116 116 117 118 120 119 119 119 118 117 116 117 118 118 117 116 116 117 118 119 120 121 122 124 125 125 126 127 128 129 131 132 134 135 136 137 138 139 139 138 136 136 135 134 133 134 135 136 136 138 140 141 139 136 135 134 131 129 130 132 132 131 131 132 133 133 132 132 132 132 132 131 130
113 113 114 114 113 113 114 115 116 117 118 118 118 117 117 117 118 119 122 123 122 121 120 119 118 119 120 120 120 119 118 120 121 123 125 126 126 127 129 129 130 130 131 132 133 134 136 138 139 140 142 141 141 140 140 139 139 138 136 135 135 137 139 141 141 140 138 136 136 136 135 133 132 133 134 134 134 135 135 134 133 133 132 132 132 131 129 127
116 116 117 117 117 116 116 117 119 120 119 119 118 118 119 119 120 121 122 122 122 120 120 119 119 120 121 121 120 120 121 124 126 127 129 130 130 132 133 133 133 133 134 135 136 138 139 141 142 145 145 144 142 142 142 143 144 141 137 136 139 142 144 144 142 139 137 137 137 136 135 135 135 135 135 136 136 136 134 132 132 131 131 131 130 128 125 122
Wind_Direction
244 245 246 247 247 246 245 245 245 246 248 250 251 253 255 256 258 259 260 261 262 264 265 266 266 265 265 265 265 266 267 268 268 269 270 271 271 273 273 273 274 275 277 279 280 282 285 287 288 289 290 289 289 290 291 290 287 285 287 288 286 283 283 283 281 279 279 280 280 280 282 285 287 289 290 287 277 262 266 285 297 302 310 319 309 302 314 314
245 246 247 248 249 248 247 246 246 247 249 251 253 254 255 256 257 258 259 260 261 262 263 265 264 264 264 263 263 264 264 265 266 267 269 270 269 270 272 273 274 274 276 278 279 281 283 284 286 287 288 288 288 289 290 288 286 285 284 284 284 281 279 278 278 278 279 280 279 280 280 284 287 289 291 290 286 277 269 278 292 296 302 309 307 302 308 310
246 247 248 250 251 251 250 249 249 249 250 251 253 254 255 255 256 257 257 258 260 260 261 262 263 262 262 262 262 263 264 264 266 267 268 268 269 269 270 271 273 274 275 276 278 279 280 281 283 284 285 286 287 288 287 285 284 285 283 283 283 281 277 275 276 277 278 279 279 278 278 280 284 287 290 290 289 286 279 276 283 287 292 299 302 303 305 305
246 247 249 250 252 252 251 251 251 251 251 251 252 253 253 254 254 255 256 257 257 258 259 260 260 261 261 263 263 264 265 266 267 268 268 267 269 269 269 269 271 273 274 275 276 278 279 280 281 282 282 284 287 286 284 283 284 284 284 284 284 282 280 277 277 277 278 280 281 279 276 276 279 282 283 286 288 287 283 280 279 282 285 288 290 296 300 301
245 247 249 250 251 251 252 252 252 251 251 251 251 251 252 252 253 253 254 255 256 256 257 258 259 261 262 263 264 265 265 267 267 267 267 267 267 268 269 269 270 271 272 273 275 276 277 278 279 279 280 284 285 284 284 285 285 284 284 284 284 283 283 282 281 281 279 280 280 280 279 279 281 281 279 281 284 284 283 282 280 281 286 288 287 288 290 292
244 246 248 249 250 251 251 251 251 251 251 252 251 251 252 252 253 253 253 254 255 256 257 258 259 261 262 262 263 263 264 265 264 264 265 265 264 264 266 267 267 268 268 270 272 273 275 277 278 279 281 283 283 283 286 286 286 285 283 283 282 282 283 284 283 282 281 279 277 277 279 280 282 281 279 279 280 281 283 283 282 280 282 288 291 290 286 282
242 244 246 248 249 250 250 250 251 251 251 251 252 252 252 253 253 253 253 254 255 256 258 258 259 260 261 262 262 262 262 262 262 261 261 262 262 262 263 264 265 266 267 269 271 272 274 276 278 281 283 283 282 284 286 286 286 286 284 283 282 282 282 283 284 283 281 280 279 279 279 279 280 280 279 279 278 278 280 282 283 282 280 283 287 288 285 281
240 242 245 246 248 249 250 250 251 251 252 252 252 253 253 254 254 253 253 253 254 255 257 258 259 260 260 261 261 261 261 260 260 260 260 260 260 261 263 264 266 269 271 271 272 272 273 275 277 279 280 280 281 283 283 284 285 286 287 286 286 285 283 282 283 282 280 280 281 283 282 280 280 280 279 279 280 279 279 280 282 283 283 280 279 280 282 282
238 241 243 245 247 248 249 250 251 252 252 253 253 254 254 254 254 254 253 253 254 255 256 257 258 259 260 261 261 261 261 259 259 260 262 263 263 263 264 266 269 271 272 272 272 271 271 273 274 274 275 276 277 278 279 279 280 281 284 285 285 285 284 283 282 281 280 280 282 283 282 280 278 278 277 277 279 280 280 281 281 282 283 281 277 275 275 278
237 239 242 244 245 247 248 249 250 251 252 253 254 254 254 254 254 254 254 254 254 255 256 257 258 259 260 261 261 262 261 260 260 260 262 264 265 266 267 268 269 269 269 269 270 270 271 271 271 272 273 273 274 274 275 276 277 278 279 281 282 283 284 284 283 282 282 281 282 283 283 281 278 276 276 276 278 280 281 282 282 282 281 280 277 275 272 272
237 239 240 242 244 245 247 248 250 251 252 252 253 253 254 254 254 254 254 254 255 255 256 258 259 260 260 261 262 263 263 262 263 263 263 265 266 267 268 267 266 266 266 267 267 268 270 270 270 271 271 272 273 273 274 275 276 277 279 280 281 282 283 284 284 284 285 285 285 285 284 284 281 279 278 278 279 280 281 283 284 284 282 279 277 275 274 273
238 239 240 242 244 246 247 248 250 250 251 251 251 252 252 253 253 253 254 255 255 256 257 258 259 260 261 261 263 265 265 265 266 266 266 264 264 264 264 264 264 265 265 266 267 268 269 269 270 271 271 272 274 274 275 276 276 276 278 279 280 281 281 281 282 282 282 284 285 285 286 286 283 283 283 282 282 282 283 285 285 284 282 280 278 276 276 276
238 239 241 243 244 246 247 248 249 250 250 250 250 250 251 252 253 254 255 255 256 257 258 259 260 261 261 262 263 265 265 266 267 267 265 262 261 261 261 262 264 265 266 267 267 268 268 269 270 271 272 273 273 274 275 275 276 277 277 277 279 280 280 280 280 280 280 281 283 284 287 287 285 285 285 283 283 282 283 285 284 282 281 280 279 278 278 279
239 240 241 243 244 245 246 247 247 248 247 247 248 248 250 251 253 254 255 256 257 258 259 260 261 261 261 262 263 264 264 266 266 265 262 261 260 260 262 263 264 265 266 267 267 268 269 270 271 271 272 272 272 273 274 275 276 276 277 278 278 279 281 282 282 281 282 283 284 284 286 288 288 288 288 286 285 283 283 283 282 281 280 280 279 279 279 280
240 240 241 242 243 244 244 244 245 245 245 245 245 246 247 249 250 252 253 254 256 257 258 260 260 261 261 262 263 263 263 263 263 262 261 261 261 261 262 263 264 265 266 267 267 268 269 270 271 272 272 272 271 272 274 275 276 275 277 278 277 278 279 281 282 282 283 284 286 286 286 287 289 291 291 290 290 288 286 284 282 281 280 280 279 278 278 279
241 241 242 242 242 243 243 243 243 243 243 243 244 244 245 246 247 248 249 250 251 252 254 255 257 258 259 261 262 262 263 262 262 262 262 263 263 264 264 264 266 267 268 268 268 268 269 271 272 272 272 271 271 272 274 275 275 276 277 277 277 277 278 279 280 281 282 284 285 286 287 286 287 290 291 291 292 292 289 287 285 283 282 281 280 279 278 278
241 242 242 242 243 243 243 243 242 242 242 242 243 243 243 244 244 245 245 246 247 248 249 251 253 254 257 259 261 263 264 264 263 263 264 264 264 265 266 267 269 269 269 269 269 269 271 272 273 273 273 272 272 274 275 276 276 278 278 278 278 278 279 279 280 280 281 283 284 284 284 285 286 287 287 289 291 291 290 289 287 286 285 284 283 281 280 279
241 242 242 243 243 243 242 242 242 242 242 242 242 242 242 242 243 244 244 245 246 247 248 249 251 253 255 258 261 263 264 265 265 265 265 265 265 266 267 269 270 271 271 271 271 273 273 274 275 275 275 274 275 276 277 277 278 279 280 280 281 281 282 281 281 282 283 283 284 284 283 284 285 286 286 287 288 287 287 287 287 286 286 285 284 283 282 281
242 242 243 243 243 242 242 242 242 242 242 241 241 241 241 242 243 244 245 246 246 247 248 250 252 253 255 257 261 263 264 265 266 266 267 267 268 268 269 270 271 272 272 273 273 274 274 275 276 276 276 276 278 279 279 279 279 279 280 281 281 282 283 282 282 283 284 284 285 284 284 285 285 285 285 285 285 284 283 284 284 284 284 284 283 282 282 281
241 242 243 243 243 243 242 242 241 241 241 241 241 242 242 243 243 244 245 246 247 247 249 250 253 255 256 258 261 263 264 265 266 267 268 269 270 271 272 272 273 273 273 273 274 275 275 275 276 276 276 278 279 280 280 279 279 279 279 280 280 281 281 281 282 283 283 283 284 284 285 286 285 284 283 283 282 281 281 282 282 282 281 281 281 281 281 281
240 241 242 243 243 243 242 241 241 241 241 241 242 243 244 245 245 245 246 247 247 248 250 251 253 256 257 259 261 263 264 267 268 269 270 271 273 274 274 275 275 275 275 275 276 275 276 278 277 276 277 279 280 280 280 279 278 278 278 279 279 278 278 278 279 280 280 281 283 285 286 287 286 285 283 282 282 281 281 281 281 280 279 279 279 279 279 278
240 241 242 242 242 242 242 241 241 241 241 242 243 243 244 245 246 247 247 248 250 251 251 253 255 257 260 262 262 263 265 266 268 271 272 273 275 275 276 276 276 277 277 277 276 277 279 280 278 278 280 280 281 281 281 279 278 279 279 279 278 277 276 277 277 278 279 281 282 285 288 292 292 289 287 285 283 282 281 281 280 279 279 279 278 278 277 277
242 243 244 244 243 242 242 242 242 243 243 243 243 244 245 246 247 248 249 250 252 254 254 255 258 259 261 263 263 263 264 265 267 270 272 273 274 275 276 277 278 279 279 278 278 280 281 279 278 280 282 282 283 282 280 279 279 280 279 278 277 277 277 277 278 279 281 283 284 286 289 294 294 292 290 288 285 284 282 281 279 278 278 278 278 277 277 276
243 245 245 246 246 245 245 245 245 245 245 245 245 246 247 247 248 249 250 250 252 256 257 256 258 259 260 261 262 263 264 265 267 269 270 272 273 275 277 277 280 282 281 281 282 283 282 278 278 281 282 282 282 281 280 280 281 280 278 277 277 278 279 279 280 281 283 285 286 287 288 292 293 292 291 289 287 286 285 282 280 279 278 277 276 276 276 276
244 245 245 247 248 249 248 247 247 246 246 246 246 247 247 248 249 249 250 250 250 255 258 258 256 256 258 260 260 262 264 266 268 269 271 272 273 275 276 277 280 282 283 285 287 287 283 280 280 281 280 280 280 280 280 281 283 281 278 278 278 279 280 280 281 282 283 285 287 287 287 287 290 292 291 289 288 288 287 284 282 280 278 277 276 275 275 274
244 245 246 247 248 249 250 248 247 246 245 245 245 246 247 248 249 249 250 249 248 252 257 260 259 258 259 260 260 261 264 266 268 270 272 274 275 277 278 280 281 282 283 285 287 288 285 284 284 282 280 279 278 279 280 282 283 282 280 280 281 281 283 283 284 284 285 287 288 290 289 287 288 291 291 289 289 290 288 286 284 281 280 278 277 277 276 275
244 246 247 248 248 249 249 249 248 246 245 245 245 245 246 247 248 248 249 249 247 250 256 261 262 262 261 261 261 262 265 266 268 272 274 276 278 280 282 284 284 284 284 286 288 287 286 287 288 286 284 283 281 280 282 283 284 283 282 283 285 286 286 287 288 288 289 289 290 292 291 287 289 293 292 292 292 290 289 288 286 284 282 280 279 277 277 276
244 246 248 249 249 249 249 249 248 248 247 246 245 245 246 247 248 248 249 250 250 253 258 259 260 261 262 263 264 265 267 268 269 274 276 278 281 283 284 285 285 286 287 288 288 288 288 290 290 290 290 289 287 286 285 285 285 285 285 287 288 289 289 290 290 291 291 291 293 293 290 288 289 292 292 292 292 291 289 288 287 286 285 284 282 281 280 279
243 246 247 249 249 250 250 249 249 248 248 247 246 246 246 247 248 249 251 254 255 256 256 257 257 259 261 264 266 268 269 270 272 275 277 279 281 282 284 285 286 287 288 289 289 288 290 291 290 291 291 291 292 292 291 290 290 289 289 290 291 291 292 292 293 293 292 293 295 292 290 290 292 293 293 291 291 290 288 287 286 285 286 286 286 285 285 285
243 244 246 248 249 250 250 250 250 249 248 248 247 247 247 248 249 250 253 257 256 253 253 255 257 258 260 263 266 267 269 270 272 274 276 278 279 280 282 284 285 287 288 289 288 288 290 290 290 290 291 292 293 293 294 294 293 292 292 293 293 293 294 294 294 294 293 295 295 291 291 293 294 295 294 291 291 290 288 287 286 285 284 284 284 284 285 285
246 246 246 247 248 248 249 250 250 250 249 248 248 247 248 249 250 253 256 257 255 253 253 255 257 258 260 262 264 265 267 269 271 273 274 276 277 279 280 282 283 284 285 287 287 287 289 288 288 289 290 291 292 293 294 294 294 295 296 296 296 297 297 296 296 296 295 296 295 293 293 294 295 296 293 291 291 290 289 289 288 286 285 285 285 285 284 284
247 248 248 248 248 248 248 248 249 249 250 250 250 249 250 250 251 254 256 255 254 255 255 256 258 259 261 263 264 266 268 270 272 273 275 276 277 279 280 281 282 283 284 285 285 287 287 287 288 288 289 289 290 291 292 294 296 297 298 299 299 300 300 299 299 297 297 298 297 295 294 294 295 295 293 292 291 290 290 290 289 288 287 287 287 287 287 288
247 248 249 249 249 249 249 249 250 250 251 251 251 251 251 252 253 255 256 255 255 256 257 259 260 261 262 264 266 267 269 271 273 274 276 277 278 279 281 282 283 284 285 285 285 286 287 287 288 289 289 289 290 291 293 295 296 297 299 300 302 303 302 301 300 299 299 299 298 296 296 295 295 294 293 293 292 292 292 292 292 291 291 291 291 292 292 292
247 247 248 249 249 249 250 251 253 253 252 252 252 252 253 255 255 255 255 255 256 257 258 260 261 262 264 266 267 269 270 271 273 275 276 278 279 280 281 282 284 285 286 286 286 286 287 288 288 289 289 291 292 293 294 295 296 298 300 301 303 303 303 302 302 301 301 299 298 298 297 297 297 296 295 296 295 295 295 295 295 295 295 296 295 295 294 293
247 247 248 248 249 250 250 251 252 253 253 253 254 254 255 257 256 255 255 256 257 258 259 260 262 264 266 267 268 270 270 271 273 275 277 279 280 281 282 283 285 286 287 287 287 287 288 289 289 290 291 292 293 294 295 295 297 299 301 302 303 303 303 304 303 302 301 300 300 300 299 299 299 299 300 300 299 298 298 297 297 297 297 296 295 294 293 292
248 248 248 249 250 251 251 251 251 251 252 253 254 254 255 256 255 255 255 256 257 258 259 260 263 265 267 268 269 270 270 272 273 275 276 278 281 283 284 284 285 287 288 288 288 288 289 290 290 290 291 292 293 294 295 297 298 300 302 303 303 303 304 304 303 302 301 301 301 302 301 301 302 302 303 302 300 299 298 297 297 295 294 293 292 291 290 290
249 249 249 249 250 251 252 252 251 251 252 253 253 254 254 254 255 256 256 257 257 258 259 261 263 265 266 268 269 270 271 272 274 275 276 278 280 283 284 285 286 286 286 286 287 288 289 290 290 291 292 293 294 295 297 299 300 301 301 303 303 303 303 302 301 301 301 302 303 303 303 303 304 304 304 301 299 298 296 295 293 292 292 291 290 290 289 289
250 250 250 250 251 252 253 254 254 253 253 253 253 254 254 254 255 255 256 256 257 258 260 261 263 264 266 268 269 271 272 273 274 275 276 277 280 282 284 285 285 285 285 285 286 287 289 289 291 292 293 294 295 297 298 299 300 300 302 302 302 302 301 301 301 301 302 303 303 303 303 303 303 303 301 299 297 295 294 292 292 291 291 290 290 290 290 291
251 250 250 251 252 253 255 256 257 256 255 254 254 254 254 255 256 256 256 256 257 259 260 262 263 264 266 267 269 271 272 274 274 275 276 278 280 283 284 285 285 285 285 286 287 288 289 290 292 294 294 295 297 299 299 299 300 301 302 301 301 301 301 300 300 301 302 302 301 301 301 301 301 300 299 297 295 294 293 292 292 291 291 291 292 292 292 293
251 252 252 253 254 256 257 258 258 259 258 257 256 254 253 254 255 256 257 257 258 260 261 262 264 265 266 267 269 271 272 273 274 276 277 279 280 283 284 285 285 286 286 287 288 289 290 291 293 294 296 298 299 299 299 300 300 300 300 300 300 300 299 299 299 300 300 299 300 300 301 301 302 300 298 296 295 294 293 292 292 292 292 292 293 293 294 294
250 252 253 255 256 256 257 257 258 259 259 258 257 256 254 253 253 255 256 257 259 261 262 264 265 266 267 269 270 271 272 273 275 277 278 279 280 281 283 285 285 286 287 287 288 290 291 292 294 296 298 299 299 299 299 299 298 298 298 299 299 299 298 298 298 298 299 299 300 302 302 303 303 301 298 296 295 294 293 293 293 293 293 293 294 294 294 294
248 250 252 254 255 256 257 258 258 258 258 258 258 257 255 253 253 254 256 259 260 262 263 264 265 267 268 270 271 272 273 274 275 277 278 279 279 280 282 284 285 286 287 288 290 292 293 295 296 298 299 298 298 298 298 297 297 297 297 298 298 298 298 298 298 299 300 300 302 302 302 303 303 301 298 297 296 295 294 295 295 295 295 295 295 294 294 294
249 249 250 252 254 255 256 257 258 259 260 259 258 258 257 256 257 257 259 261 263 264 265 266 267 268 269 270 272 273 274 275 276 278 278 279 279 281 283 285 286 288 289 291 293 294 295 296 297 298 298 298 298 298 297 296 296 296 297 297 297 298 298 298 298 300 300 302 303 302 302 303 302 300 298 297 296 296 296 296 296 296 295 295 295 295 294 295
253 253 253 254 255 256 255 256 257 259 260 261 260 260 260 260 260 261 262 264 265 266 267 269 271 272 272 273 274 275 276 276 277 278 278 279 280 282 284 286 288 290 291 292 293 294 294 295 296 297 297 297 297 296 296 295 295 296 296 297 297 297 297 298 299 300 301 303 302 301 301 302 300 298 298 298 297 297 297 297 296 295 295 295 295 295 295 295
256 257 258 259 260 261 261 261 261 261 262 263 264 264 264 264 265 265 267 268 269 270 271 273 274 275 275 276 276 277 277 277 278 278 280 281 283 284 286 288 289 290 291 292 292 292 293 294 295 296 295 295 295 294 294 294 295 296 296 296 296 297 298 299 300 301 302 302 301 300 301 300 298 298 299 299 298 298 296 295 295 295 295 296 296 295 295 295
254 256 257 258 260 261 263 265 266 267 268 268 268 268 268 269 270 271 272 273 274 275 275 275 276 276 277 278 278 278 278 278 279 281 282 284 285 286 287 288 289 290 290 290 291 291 291 292 293 294 294 294 294 293 293 294 295 295 295 296 297 298 299 300 301 302 302 300 299 300 300 298 298 300 300 299 297 296 295 295 295 296 296 296 295 295 295 294
252 254 255 256 257 259 261 263 265 267 268 269 269 269 269 270 271 272 273 274 274 274 275 276 277 278 279 279 279 279 280 281 282 284 285 285 285 285 286 287 287 288 288 289 289 290 290 291 292 292 292 293 293 293 293 294 295 295 295 296 298 299 300 301 302 301 300 299 299 300 299 299 300 300 299 297 296 295 295 296 297 297 296 295 295 295 295 294
252 253 254 255 257 258 260 261 262 263 264 266 267 269 270 271 272 272 273 272 272 273 274 276 277 279 279 280 280 281 282 283 285 286 285 285 284 285 285 286 286 287 287 287 288 289 289 290 292 292 292 293 293 293 294 294 294 295 296 298 299 300 301 301 300 299 298 298 299 300 299 299 299 299 297 295 295 296 296 297 296 296 296 295 295 295 295 294
251 252 254 255 257 258 259 260 261 262 263 265 267 268 270 271 272 272 273 273 273 274 275 276 278 279 280 280 281 282 284 285 285 284 284 283 284 284 285 286 286 287 288 288 289 289 290 291 292 292 292 292 293 293 294 294 294 296 297 299 301 302 300 298 298 298 299 299 300 300 298 297 298 297 295 295 295 296 296 296 295 295 295 295 295 294 294 294
252 252 253 255 256 257 259 260 261 262 263 265 266 268 270 271 272 272 272 273 273 275 277 278 279 280 279 280 281 283 284 284 283 282 282 282 283 285 285 286 287 288 289 289 289 290 291 291 292 292 292 292 292 293 293 294 295 296 299 302 302 299 297 297 298 299 299 299 299 298 297 297 298 296 295 295 296 295 295 295 295 295 295 294 294 294 294 294
253 253 254 255 256 257 258 259 261 262 263 264 266 268 269 269 270 271 272 274 275 277 278 279 279 279 279 280 282 283 282 281 280 281 282 283 284 285 285 286 287 288 289 289 289 290 290 290 291 291 291 291 292 292 293 294 295 298 301 302 299 296 296 298 299 299 298 297 297 296 297 297 296 295 295 295 295 294 294 295 295 295 294 294 294 294 294 294
253 254 255 256 257 258 259 260 261 262 263 265 266 266 267 268 269 270 271 273 275 275 276 277 277 277 278 279 280 280 279 279 279 280 281 282 283 284 285 286 286 287 287 288 288 289 289 289 290 290 290 291 292 293 294 295 296 300 302 300 296 296 299 299 298 297 296 296 296 296 296 295 295 294 294 293 293 294 294 294 294 294 294 294 294 294 293 293